Weather History for KSLC - November, 2012

Change the Weather History Date:

Friday, November 9, 2012

  Actual Average Record
Temperature  
Mean Temperature 47 °F 43 °F  
Max Temperature 61 °F 53 °F 74 °F (1958)
Min Temperature 33 °F 33 °F 17 °F (1948)
Degree Days  
Heating Degree Days 18 22  
Month to date heating degree days 97 182  
Since 1 July heating degree days 403 650  
Cooling Degree Days 0 0  
Month to date cooling degree days 0 0  
Year to date cooling degree days 1615 1160  
Moisture  
Dew Point 33 °F    
Average Humidity 66    
Maximum Humidity 100    
Minimum Humidity 32    
Precipitation  
Precipitation 0.93 in 0.05 in 1.07 in (2012)
Month to date precipitation 0.93 0.45  
Year to date precipitation 10.55 13.69  
Snow  
Snow 3.60 in 0.20 in 6.10 in (2000)
Month to date snowfall 3.6 1.3  
Since 1 July snowfall 3.9 2.7  
Snow Depth 0.00 in    
Sea Level Pressure  
Sea Level Pressure 29.65 in    
Wind  
Wind Speed 14 mph (NW)    
Max Wind Speed 37 mph    
Max Gust Speed 47 mph    
Visibility 3 miles    
Events Fog , Rain , Snow , Thunderstorm    
T = Trace of Precipitation, MM = Missing Value Source: NWS Daily Summary

Daily Weather History Graph

Daily Weather History Graph

Search for Another Location

Airport or City:

Trip Planner

Search our weather history database for the weather conditions in past years. The results will help you decide how hot, cold, wet, or windy it might be!

Date:

Astronomy

Nov. 09, 2012 Rise Set
Actual Time 7:08 AM MST 5:14 PM MST
Civil Twilight 6:39 AM MST 5:43 PM MST
Nautical Twilight 6:06 AM MST 6:16 PM MST
Astronomical Twilight 5:34 AM MST 6:48 PM MST
Moon 2:09 AM MST (11/9) 2:31 PM MST (11/9)
Length of Visible Light 11h 04m
Length of Day
10h 06m
Waning Crescent, 22% of the Moon is Illuminated
Nov 9
Waning Crescent
Nov 13
New
Nov 20
First Quarter
Nov 28
Full
Dec 6
Last Quarter

Hourly Weather History & Observations

Time (MST) Temp. Windchill Dew Point Humidity Pressure Visibility Wind Dir Wind Speed Gust Speed Precip Events Conditions
12:53 AM 61.0 °F - 34.0 °F 36% 29.41 in 10.0 mi South 20.7 mph 29.9 mph N/A   Mostly Cloudy
1:53 AM 60.1 °F - 35.1 °F 39% 29.41 in 10.0 mi South 27.6 mph 40.3 mph N/A   Mostly Cloudy
2:53 AM 59.0 °F - 37.0 °F 44% 29.41 in 10.0 mi South 32.2 mph 41.4 mph N/A   Mostly Cloudy
3:53 AM 60.1 °F - 37.9 °F 44% 29.40 in 10.0 mi South 29.9 mph 40.3 mph N/A   Mostly Cloudy
4:09 AM 50.0 °F - 37.4 °F 62% 29.57 in 10.0 mi WNW 5.8 mph 19.6 mph N/A   Overcast
4:36 AM 44.6 °F 37.4 °F 37.4 °F 76% 29.61 in 10.0 mi NW 16.1 mph 29.9 mph 0.00 in Rain Light Rain
4:53 AM 44.1 °F 35.7 °F 37.9 °F 79% 29.54 in 10.0 mi WNW 20.7 mph 28.8 mph 0.00 in Rain Light Rain
5:00 AM 44.6 °F 36.6 °F 37.4 °F 76% 29.62 in 10.0 mi NW 19.6 mph 27.6 mph N/A Rain Light Rain
5:53 AM 39.9 °F 30.5 °F 37.0 °F 89% 29.56 in 5.0 mi NNW 19.6 mph - 0.10 in Rain Heavy Rain
6:09 AM 37.4 °F 26.1 °F 35.6 °F 93% 29.65 in 6.0 mi NNW 24.2 mph - 0.05 in Rain , Thunderstorm Thunderstorms and Rain
6:20 AM 37.4 °F 27.2 °F 35.6 °F 93% 29.65 in 4.0 mi NNW 19.6 mph 32.2 mph 0.09 in Rain Heavy Rain
6:27 AM 37.4 °F 26.4 °F 35.6 °F 93% 29.66 in 5.0 mi NNW 23.0 mph - 0.11 in Rain , Thunderstorm Thunderstorms and Rain
6:42 AM 35.6 °F 24.5 °F 33.8 °F 93% 29.68 in 2.5 mi NNW 20.7 mph 25.3 mph 0.17 in Rain , Thunderstorm Heavy Thunderstorms and Rain
6:53 AM 34.0 °F 23.0 °F 33.1 °F 96% 29.62 in 1.8 mi NNW 18.4 mph - 0.23 in Rain , Thunderstorm Heavy Thunderstorms and Rain
7:04 AM 33.8 °F 23.9 °F 33.8 °F 100% 29.68 in 0.5 mi NNW 15.0 mph - 0.04 in Snow , Thunderstorm Light Thunderstorms and Snow
7:16 AM 33.8 °F 24.8 °F 33.8 °F 100% 29.68 in 0.5 mi NNW 12.7 mph - 0.07 in Snow Light Snow
7:32 AM 33.8 °F 26.4 °F 33.8 °F 100% 29.70 in 0.5 mi NNW 9.2 mph - 0.12 in Snow Light Snow
7:53 AM 33.1 °F 24.9 °F 33.1 °F 100% 29.62 in 0.5 mi NNW 10.4 mph - 0.18 in Fog , Snow Snow
8:01 AM 33.8 °F 28.6 °F 33.8 °F 100% 29.71 in 0.5 mi WNW 5.8 mph - 0.02 in Snow Light Snow
8:53 AM 34.0 °F - 33.1 °F 96% 29.66 in 0.5 mi Calm Calm - 0.09 in Snow Light Snow
8:57 AM 33.8 °F 30.8 °F 33.8 °F 100% 29.71 in 1.5 mi NW 3.5 mph - 0.01 in Snow Light Snow
9:12 AM 33.8 °F 30.8 °F 33.8 °F 100% 29.74 in 0.8 mi WSW 3.5 mph - 0.02 in Snow Light Snow
9:32 AM 33.8 °F 27.0 °F 33.8 °F 100% 29.72 in 1.5 mi NNW 8.1 mph - 0.04 in Snow Light Snow
9:53 AM 34.0 °F 28.8 °F 33.1 °F 96% 29.68 in 1.0 mi North 5.8 mph - 0.08 in Snow Light Snow
10:44 AM 33.8 °F 27.7 °F 33.8 °F 100% 29.71 in 0.2 mi North 6.9 mph - 0.04 in Snow Light Snow
10:53 AM 33.1 °F 28.7 °F 33.1 °F 100% 29.67 in 0.2 mi NNW 4.6 mph - 0.06 in Snow Light Snow
11:11 AM 33.8 °F - 33.8 °F 100% 29.72 in 1.0 mi Calm Calm - 0.01 in Snow Light Snow
11:33 AM 33.8 °F 30.8 °F 33.8 °F 100% 29.72 in 0.2 mi West 3.5 mph - 0.03 in Snow Light Snow
11:41 AM 33.8 °F 30.8 °F 32.0 °F 93% 29.71 in 0.2 mi NW 3.5 mph - 0.04 in Snow Light Snow
11:53 AM 33.1 °F 28.7 °F 32.0 °F 96% 29.66 in 0.2 mi WNW 4.6 mph - 0.07 in Snow Light Snow
12:28 PM 33.8 °F 28.6 °F 33.8 °F 100% 29.67 in 0.2 mi NNW 5.8 mph - 0.07 in Snow Light Snow
12:53 PM 34.0 °F 28.0 °F 33.1 °F 96% 29.62 in 0.2 mi WNW 6.9 mph - 0.10 in Snow Light Snow
1:23 PM 33.8 °F 27.7 °F 33.8 °F 100% 29.67 in 1.0 mi West 6.9 mph - 0.01 in Snow Light Snow
1:30 PM 33.8 °F 27.7 °F 33.8 °F 100% 29.66 in 0.5 mi NW 6.9 mph - 0.02 in Snow Light Snow
1:53 PM 34.0 °F 28.0 °F 33.1 °F 96% 29.62 in 0.5 mi WNW 6.9 mph - 0.03 in Snow Light Snow
2:44 PM 33.8 °F 30.8 °F 33.8 °F 100% 29.64 in 1.8 mi NW 3.5 mph - 0.05 in Snow Light Snow
2:53 PM 34.0 °F 31.0 °F 33.1 °F 96% 29.59 in 2.0 mi NW 3.5 mph - 0.05 in Snow Light Snow
3:00 PM 33.8 °F 28.6 °F 33.8 °F 100% 29.65 in 1.5 mi NNW 5.8 mph - 0.00 in Snow Light Snow
3:05 PM 33.8 °F 28.6 °F 33.8 °F 100% 29.64 in 0.5 mi NNW 5.8 mph - 0.01 in Snow Light Snow
3:08 PM 33.8 °F 28.6 °F 33.8 °F 100% 29.64 in 0.5 mi NNW 5.8 mph - 0.01 in Snow Light Snow
3:24 PM 33.8 °F 30.8 °F 33.8 °F 100% 29.64 in 1.5 mi NW 3.5 mph - 0.03 in Snow Light Snow
3:29 PM 33.8 °F 27.7 °F 33.8 °F 100% 29.64 in 1.8 mi NW 6.9 mph - 0.03 in Snow Light Snow
3:32 PM 33.8 °F 27.7 °F 33.8 °F 100% 29.65 in 4.0 mi NW 6.9 mph - 0.03 in Snow Light Snow
3:38 PM 33.8 °F 28.6 °F 33.8 °F 100% 29.65 in 2.5 mi NNW 5.8 mph - 0.03 in Snow Light Snow
3:44 PM 35.6 °F 30.7 °F 33.8 °F 93% 29.65 in 1.2 mi NW 5.8 mph - 0.03 in Snow Light Snow
3:53 PM 34.0 °F 29.8 °F 33.1 °F 96% 29.60 in 2.5 mi NW 4.6 mph - 0.03 in Snow Light Snow
4:01 PM 33.8 °F 29.6 °F 33.8 °F 100% 29.66 in 1.5 mi WNW 4.6 mph - 0.00 in Snow Light Snow
4:25 PM 33.8 °F 27.0 °F 33.8 °F 100% 29.66 in 0.2 mi West 8.1 mph - 0.01 in Snow Light Snow
4:36 PM 33.8 °F 25.8 °F 32.0 °F 93% 29.66 in 0.2 mi West 10.4 mph - 0.01 in Snow Light Snow
4:42 PM 33.8 °F 26.4 °F 33.8 °F 100% 29.65 in 1.0 mi West 9.2 mph - 0.02 in Snow Light Snow
4:53 PM 34.0 °F 26.0 °F 33.1 °F 96% 29.63 in 1.0 mi West 10.4 mph - 0.02 in Snow Light Snow
5:06 PM 33.8 °F 24.3 °F 33.8 °F 100% 29.65 in 2.0 mi WNW 13.8 mph - 0.00 in Snow Light Snow
5:20 PM 33.8 °F 24.8 °F 33.8 °F 100% 29.66 in 2.0 mi WNW 12.7 mph - 0.01 in Snow Light Snow
5:25 PM 33.8 °F 25.3 °F 33.8 °F 100% 29.66 in 2.0 mi NW 11.5 mph - 0.01 in Snow Light Snow
5:37 PM 33.8 °F 25.3 °F 33.8 °F 100% 29.66 in 2.0 mi WNW 11.5 mph - 0.01 in Snow Light Snow
5:44 PM 33.8 °F 26.4 °F 33.8 °F 100% 29.66 in 2.0 mi WNW 9.2 mph - 0.02 in Snow Light Snow
5:53 PM 34.0 °F 25.5 °F 33.1 °F 96% 29.66 in 2.0 mi West 11.5 mph - 0.02 in Snow Light Snow
5:58 PM 33.8 °F 25.8 °F 33.8 °F 100% 29.67 in 2.0 mi West 10.4 mph - 0.00 in Snow Light Snow
6:30 PM 33.8 °F 27.7 °F 33.8 °F 100% 29.68 in 1.5 mi West 6.9 mph - 0.02 in Snow Light Snow
6:33 PM 33.8 °F 27.0 °F 33.8 °F 100% 29.68 in 1.2 mi West 8.1 mph - 0.02 in Snow Light Snow
6:53 PM 34.0 °F 25.5 °F 32.0 °F 92% 29.70 in 1.5 mi NW 11.5 mph - 0.04 in Snow Light Snow
7:53 PM 33.1 °F 24.4 °F 32.0 °F 96% 29.71 in 1.0 mi North 11.5 mph - 0.04 in Snow Light Snow
8:32 PM 33.8 °F 25.8 °F 32.0 °F 93% 29.71 in 1.2 mi North 10.4 mph - 0.02 in Snow Light Snow
8:53 PM 33.1 °F 23.9 °F 32.0 °F 96% 29.72 in 1.2 mi North 12.7 mph - 0.04 in Snow Light Snow
9:21 PM 33.8 °F 25.8 °F 32.0 °F 93% 29.71 in 1.5 mi NNE 10.4 mph - 0.01 in Snow Light Snow
9:41 PM 33.8 °F 26.4 °F 30.2 °F 87% 29.70 in 2.0 mi NNE 9.2 mph - 0.01 in Snow Light Snow
9:53 PM 33.1 °F 26.1 °F 30.9 °F 92% 29.72 in 2.0 mi NNE 8.1 mph - 0.01 in Snow Light Snow
10:03 PM 33.8 °F 29.6 °F 30.2 °F 87% 29.71 in 5.0 mi NNE 4.6 mph - 0.00 in Snow Light Snow
10:27 PM 33.8 °F 27.7 °F 28.4 °F 81% 29.71 in 2.5 mi NE 6.9 mph - 0.00 in Snow Light Snow
10:33 PM 33.8 °F 27.7 °F 30.2 °F 87% 29.71 in 2.5 mi NE 6.9 mph - 0.00 in Snow Light Snow
10:43 PM 33.8 °F 28.6 °F 30.2 °F 87% 29.70 in 4.0 mi NNE 5.8 mph - 0.00 in Snow Light Snow
10:53 PM 33.1 °F 30.0 °F 30.0 °F 89% 29.72 in 6.0 mi NNE 3.5 mph - 0.00 in Snow Light Snow
11:18 PM 33.8 °F 29.6 °F 30.2 °F 87% 29.70 in 3.0 mi NE 4.6 mph - 0.01 in Snow Light Snow
11:53 PM 33.1 °F 30.0 °F 30.9 °F 92% 29.71 in 3.0 mi NNE 3.5 mph - 0.02 in Snow Light Snow